Location: Bühlhof
(48.7849°N, 8.6361°E)
Time: 00:10:45
(UTC+00:00)

Cosmos 1777 Rocket - Pass Details

Date: 19 January 2026
Orbit: 754 x 771 km, 74.0° (Epoch: 9 February)

Event Time Altitude Azimuth Distance (km) Brightness Sun altitude
Rises 18:48:28 0° 336° (NNW) 3,221 7.5 -26.8°
Reaches altitude 10° 18:50:51 10° 336° (NNW) 2,293 6.7 -27.2°
Enters shadow 18:55:19 66° 329° (NNW) 827 4.1 -28.0°
